Flag for Japan Weather past 2 weeks in Nagoya, Japan

Now
66 °F

Passing clouds.


Feels Like: 66 °F
Forecast: 50 / 79 °F
Wind: 3 mph from West

Location: Nagoya Airport

Current Time: Apr 26, 2015 at 12:09:27 PM

Latest Report: Apr 26, 2015 at 11:30 AM


Visibility: N/A

Pressure: 30.15 "Hg

Humidity: 64%

Dew point: 54 °F

Location of NagoyaLocation

Historic Weather in Nagoya — Graph

°F

Nagoya temperature yesterday

Maximum temperature yesterday: 72 °F (at 12:30 PM)
Minimum temperature yesterday: 57 °F (at 5:00 AM)
Average temperature yesterday: 65 °F

Past Weeks' High & Low Weather Summary

 TemperatureHumidityPressure
High72 °F (Apr 23, 4:00 PM)100% (Apr 13, 4:00 PM)30.36 "Hg (Apr 13, 4:00 PM)
Low43 °F (Apr 18, 5:30 AM)26% (Apr 18, 3:00 PM)29.53 "Hg (Apr 20, 4:00 PM)
Average59 °F72%29.98 "Hg
* Reported Apr 11 11:00 AM — Apr 26 11:00 AM, Nagoya, Weather by CustomWeather, © 2015

Note: Actual official high and low records may vary slightly from our data, if they occured in-between our weather recording intervals... More about our weather records

Advertising

Nagoya weather history for previous 24 hours

 ConditionsComfort  
Time TempWeatherWind HumidityBarometerVisibility
11:00 AM
Sun, Apr 26
64 °FPassing clouds.5 mph64%30.15 "HgN/A
10:30 AM64 °FPassing clouds.5 mph64%30.15 "HgN/A
10:00 AM63 °FPassing clouds.8 mph64%30.18 "HgN/A
9:30 AM63 °FPassing clouds.8 mph64%30.18 "HgN/A
9:00 AM63 °FPassing clouds.9 mph56%30.18 "HgN/A
8:30 AM63 °FPassing clouds.7 mph59%30.15 "HgN/A
8:00 AM61 °FPassing clouds.6 mph63%30.15 "HgN/A
7:30 AM61 °FPassing clouds.5 mph59%30.15 "HgN/A
7:00 AM59 °FScattered clouds.7 mph63%30.15 "HgN/A
6:00 AM57 °FPassing clouds.7 mph59%30.15 "HgN/A
5:30 AM55 °FPartly sunny.6 mph67%30.12 "HgN/A
5:00 AM55 °FPassing clouds.10 mph67%30.12 "HgN/A
4:30 AM55 °FPassing clouds.12 mph77%30.12 "HgN/A
4:00 AM59 °FPassing clouds.5 mph88%30.12 "HgN/A
3:30 AM59 °FPassing clouds.3 mph82%30.09 "HgN/A
3:00 AM61 °FPassing clouds.3 mph77%30.09 "HgN/A
2:30 AM61 °FPassing clouds.5 mph83%30.09 "HgN/A
2:00 AM61 °FPassing clouds.6 mph83%30.09 "HgN/A
1:30 AM61 °FClear.8 mph77%30.09 "Hg10 mi
1:00 AM61 °FClear.9 mph83%30.09 "Hg10 mi
12:30 AM61 °FClear.10 mph83%30.09 "Hg10 mi
12:00 AM61 °FClear.12 mph83%30.09 "Hg10 mi
11:30 PM
Sat, Apr 25
61 °FClear.10 mph83%30.09 "Hg10 mi
11:00 PM61 °FClear.10 mph83%30.09 "Hg10 mi
10:30 PM61 °FClear.8 mph88%30.09 "Hg10 mi
10:00 PM61 °FClear.8 mph83%30.09 "Hg10 mi
9:30 PM63 °FPassing clouds.8 mph68%30.09 "HgN/A
9:00 PM61 °FClear.9 mph45%30.07 "Hg10 mi
8:30 PM64 °FClear.16 mph46%30.04 "Hg10 mi
8:00 PM64 °FClear.14 mph52%30.04 "Hg10 mi
7:30 PM64 °FClear.15 mph60%30.01 "Hg10 mi
7:00 PM66 °FClear.17 mph52%30.01 "Hg10 mi
6:30 PM66 °FSunny.15 mph56%30.01 "Hg10 mi
6:00 PM68 °FSunny.18 mph46%30.01 "Hg10 mi
5:30 PM68 °FSunny.18 mph46%29.98 "Hg10 mi
5:00 PM70 °FSunny.18 mph46%29.98 "Hg10 mi
4:30 PM72 °FSunny.17 mph38%29.98 "Hg10 mi
4:00 PM72 °FSunny.17 mph38%29.98 "Hg10 mi
3:30 PM72 °FPassing clouds.9 mph33%29.98 "HgN/A
3:00 PM72 °FPassing clouds.9 mph38%29.98 "HgN/A
2:30 PM70 °FPassing clouds.9 mph43%29.98 "HgN/A
2:00 PM72 °FPassing clouds.6 mph38%29.98 "HgN/A
1:30 PM70 °FPassing clouds.8 mph46%29.98 "HgN/A
1:00 PM70 °FPassing clouds.8 mph43%29.98 "HgN/A
12:30 PM72 °FSunny.7 mph36%30.01 "Hg10 mi
12:00 PM70 °FSunny.5 mph35%30.01 "Hg10 mi
Weather by CustomWeather, © 2015

See weather overviewHow to use our weather pages